Regional Weather Roundup
Issued by NWS

Home | Current Version | Previous Version | Text Only | Print | Product List | Glossary Off
Versions: 1 2 3 4 5 6 7 8 9 10 11 12 13 14 15 16 17 18 19 20 21 22 23 24 25 26 27 28 29 30 31 32 33 34 35 36 37 38 39 40 41 42 43 44 45 46 47 48 49 50

000
ASUS43 KLOT 271910
RWRIL

ILLINOIS REGIONAL WEATHER ROUNDUP
NATIONAL WEATHER SERVICE CHICAGO/ROMEOVILLE IL
100 PM CST FRI FEB 27 2015

NOTE: "FAIR" INDICATES FEW OR NO CLOUDS BELOW 12,000 FEET WITH NO
SIGNIFICANT WEATHER AND/OR OBSTRUCTIONS TO VISIBILITY.

* THESE STATIONS ARE NOT UNDER NWS QUALITY CONTROL. THEY ALSO MAY NOT
  REPORT WEATHER SUCH AS PRECIPITATION OR FOG.

ILZ001-002-007-009-015-016-024-272000-
NORTHWEST ILLINOIS

CITY           SKY/WX    TMP DP  RH WIND       PRES   REMARKS
MOLINE         SUNNY     13  -4  46 CALM      30.64F
STERLING*      SUNNY     10  -2  56 W3        30.64F
SAVANNA*       SUNNY     12  -5  46 SW6       30.63F WCI   2
$$

ILZ003-004-008-010-011-017-018-272000-
NORTH CENTRAL ILLINOIS

CITY           SKY/WX    TMP DP  RH WIND       PRES   REMARKS
ROCKFORD       SUNNY     11  -6  46 W12       30.61F WCI  -3
FREEPORT*      SUNNY      9  -6  51 W7        30.61F WCI  -2
ROCHELLE*      SUNNY      7  -1  71 SW7       30.62F WCI  -5
DE KALB*       SUNNY      8  -5  55 SW10      30.60F WCI  -6
PERU*          SUNNY     12  -1  56 NW6       30.64F WCI   3
$$

ILZ005-006-012>014-019>023-272000-
NORTHEAST ILLINOIS

CITY           SKY/WX    TMP DP  RH WIND       PRES   REMARKS
CHICAGO-OHARE  SUNNY     13  -5  44 SW8       30.59F WCI   2
CHICAGO-MIDWAY SUNNY     16  -2  45 W10       30.61F WCI   4
AURORA         SUNNY     10  -1  61 W9        30.62F WCI  -3
LANSING*       SUNNY     15  -2  46 W13       30.61F WCI   2
JOLIET*        SUNNY     11  -4  49 W7        30.64F WCI   1
WAUKEGAN       SUNNY     15  -6  39 VRB6      30.57F WCI   6
DUPAGE AIRPORT MIX PCPN  12  -3  51 W12       30.60F WCI  -2
KANKAKEE*      SUNNY     10   2  69 W7        30.64F WCI  -1
WHEELING       SUNNY     16  -6  37 W8        30.60F WCI   5
MORRIS*        SUNNY     10   0  65 W5        30.63F WCI   1
ROMEOVILLE*    SUNNY     13  -3  49 W12       30.62F WCI  -1
NORTHERLY ISL    N/A     18  -4  37 W7          N/A  WCI   9
$$

LMZ740>746-272000-
SOUTHERN LAKE MICHIGAN

STATION/POSITION SKY/WX   TEMP    WIND        PRES    VSBY  WAVE
                          AIR SEA DIR/SP/G                  HT/PER
                          (F)     (DEG/KT/KT) (MB)    (MI)  (FT/S)
WAUKEGAN HARBOR            15     300/  8/ 13   N/A
HARRISON CRIB              14     280/ 11/ 14   N/A
BURNHAM HARBOR             18     260/  7/ 12   N/A
CALUMET HARBOR             17     250/  7/ 10 1034.9F
MICHIGAN CITY              14     250/ 11/ 13   N/A
$$

ILZ025>027-034>036-040-047-049-050-058-095>099-272000-
WEST-CENTRAL ILLINOIS

CITY           SKY/WX    TMP DP  RH WIND       PRES   REMARKS
QUINCY         SUNNY     10  -5  50 N5        30.64F WCI   2
GALESBURG*     SUNNY      8   0  68 NW5       30.64F WCI   0
MACOMB*        SUNNY      7  -1  69 NW6       30.67F WCI  -3
JACKSONVILLE*  SUNNY     12  -1  55 W3        30.65F
PITTSFIELD*    SUNNY     12  -2  52 W6        30.65F WCI   3
$$

ILZ028>032-037-038-041>044-048-051>054-059>061-272000-
CENTRAL ILLINOIS

CITY           SKY/WX    TMP DP  RH WIND       PRES   REMARKS
PONTIAC        SUNNY     10   1  68 NW5       30.64F WCI   1
BLOOMINGTON    SUNNY     14   1  56 VRB3      30.61F
DECATUR        SUNNY     15   1  53 NE3       30.63F
PEORIA         SUNNY     13  -3  49 W7        30.64F WCI   3
LACON*         SUNNY     11  -3  53 NW6       30.65F WCI   2
LINCOLN*       SUNNY     16   4  59 NW3       30.67F
SPRINGFIELD    SUNNY      8   0  69 SW7       30.65F WCI  -3
TAYLORVILLE    SUNNY     12   1  62 CALM      30.64F
$$

ILZ033-039-045-046-055>057-062-063-272000-
EAST-CENTRAL ILLINOIS

CITY           SKY/WX    TMP DP  RH WIND       PRES   REMARKS
CHAMPAIGN      SUNNY     10   2  69 SW6       30.63F WCI   0
DANVILLE*      SUNNY     15   0  51 NW6       30.59F WCI   6
RANTOUL*       SUNNY     15   4  60 CALM      30.62F
MATTOON        SUNNY     13   1  59 N5        30.63F WCI   5
PARIS*         SUNNY     12   3  67 W3        30.65S
$$

ILZ079-100>102-272000-
SOUTHWEST ILLINOIS

CITY           SKY/WX    TMP DP  RH WIND       PRES   REMARKS
ALTON          SUNNY     14  -6  41 N7        30.66F WCI   4
BELLEVILLE     SUNNY     20   1  44 VRB7      30.64F WCI  11
CAHOKIA*       SUNNY     19   2  47 N7        30.65F WCI  10
SPARTA*        SUNNY     18   7  62 N3        30.64F
$$

ILZ064>066-069>071-074>076-080>082-084>086-088>090-092>094-272000-
SOUTH-CENTRAL ILLINOIS

CITY           SKY/WX    TMP DP  RH WIND       PRES   REMARKS
CARBONDALE     MOSUNNY   20   7  57 VRB7      30.62F WCI  11
CAIRO*         SUNNY     25  12  57 NE8       30.62S WCI  16
EFFINGHAM*     SUNNY     15  -2  47 W5        30.66F WCI   8
MARION         MOSUNNY   21   9  58 N5        30.62F WCI  15
MT. VERNON     SUNNY     19   5  53 N5        30.63F WCI  13
CENTRALIA*     FAIR      16   3  57 CALM      30.63F
SALEM*         SUNNY     16   1  52 N5        30.64F WCI   9
METROPOLIS*    SUNNY     24  10  56 N3        30.60F
$$

ILZ067-068-072-073-078-083-087-091-272000-
SOUTHEAST ILLINOIS

CITY           SKY/WX    TMP DP  RH WIND       PRES   REMARKS
LAWRENCEVILLE  FLURRIES  20   4  50 CALM      30.65F
FLORA*         SUNNY     14   1  57 NW5       30.65F WCI   6
FAIRFIELD*     SUNNY     17   6  61 N7        30.63F WCI   8
HARRISBURG*    SUNNY     20  12  69 NE7       30.64F WCI  11
ROBINSON*      SUNNY     18   2  50 CALM      30.66F
CARMI*         SUNNY     22  13  68 N7        30.63F WCI  13
$$

ABBREVIATIONS USED IN REMARKS
   TC - TEMPERATURE IN CELSIUS
  WCI - WIND CHILL INDEX
   HX - HEAT INDEX
  VSB - VISIBILITY
$$



USA.gov is the U.S. government's official web portal to all federal, state and local government web resources and services.